Location: Moscow
(55.7500°N, 37.5830°E)
Time: 08:06:52
(UTC+03:00)

AO-109 - Visible Passes

Search period start: 25 January 2022 00:00
Search period end: 04 February 2022 00:00
Orbit: 479 x 515 km, 60.7° (Epoch: 24 January)

Date Brightness Start Highest point End Pass type
(mag) Time Alt. Az. Time Alt. Az. Time Alt. Az.
25 Jan ? 06:01:04 10° S 06:03:43 18° SE 06:06:21 10° E visible
25 Jan ? 07:37:02 10° SW 07:40:53 77° SE 07:44:42 10° ENE visible
26 Jan ? 05:39:15 10° SSE 05:41:48 17° SE 05:44:20 10° E visible
26 Jan ? 07:15:05 10° SW 07:18:56 74° SE 07:22:45 10° ENE visible
27 Jan ? 05:18:20 13° SSE 05:19:52 16° SE 05:22:17 10° E visible
27 Jan ? 06:53:08 10° SW 06:56:58 71° SE 07:00:47 10° ENE visible
28 Jan ? 04:57:43 15° SE 04:57:55 15° SE 05:00:13 10° E visible
28 Jan ? 06:32:21 19° SW 06:35:00 67° SE 06:38:49 10° ENE visible
29 Jan ? 04:36:55 14° ESE 04:36:55 14° ESE 04:38:08 10° E visible
29 Jan ? 06:11:32 34° SSW 06:13:02 64° SE 06:16:50 10° ENE visible
29 Jan ? 07:47:08 10° W 07:50:52 46° NNW 07:54:32 10° ENE visible
30 Jan ? 04:15:59 10° E 04:15:59 10° E 04:16:02 10° E visible
30 Jan ? 05:50:35 55° S 05:51:03 61° SE 05:54:50 10° ENE visible
30 Jan ? 07:25:11 10° W 07:28:52 47° NNW 07:32:33 10° ENE visible
31 Jan ? 05:29:31 54° ESE 05:29:31 54° ESE 05:32:50 10° ENE visible
31 Jan ? 07:04:06 17° W 07:06:51 48° NNW 07:10:33 10° ENE visible
01 Feb ? 05:08:22 35° E 05:08:22 35° E 05:10:49 10° ENE visible
01 Feb ? 06:42:57 26° W 06:44:50 50° NNW 06:48:33 10° ENE visible
02 Feb ? 04:47:09 24° ENE 04:47:09 24° ENE 04:48:48 10° ENE visible
02 Feb ? 06:21:44 38° WNW 06:22:48 51° NNW 06:26:32 10° ENE visible
03 Feb ? 04:25:52 16° ENE 04:25:52 16° ENE 04:26:47 10° ENE visible
03 Feb ? 06:00:27 50° NW 06:00:46 52° NNW 06:04:30 10° ENE visible
03 Feb ? 07:35:21 10° WNW 07:38:58 38° N 07:42:32 10° ENE visible
